| time (UTC) | temp F | wind direction | speed MPH | gust MPH | rain 1hr in | rain 24hr in | rain mn in | humidity % | barometer mb |
| 20260510080006 | 61 | 136 | 0.0 | 2.0 | 0.00 | 0.05 | 0.03 | 89 | 1012.0 |
| 20260510074507 | 62 | 135 | 0.0 | 3.0 | 0.00 | 0.05 | 0.03 | 89 | 1012.4 |
| 20260510073007 | 62 | 106 | 0.0 | 2.0 | 0.00 | 0.05 | 0.03 | 88 | 1011.7 |
| 20260510071504 | 62 | 103 | 0.0 | 6.0 | 0.00 | 0.05 | 0.03 | 88 | 1012.1 |
| 20260510070004 | 62 | 107 | 0.0 | 3.0 | 0.00 | 0.05 | 0.03 | 88 | 1012.2 |
| 20260510064502 | 63 | 90 | 0.0 | 3.0 | 0.00 | 0.05 | 0.03 | 87 | 1012.3 |
| 20260510063102 | 63 | 344 | 0.0 | 5.0 | 0.00 | 0.05 | 0.03 | 87 | 1012.9 |
| 20260510061558 | 63 | 81 | 0.0 | 2.0 | 0.01 | 0.05 | 0.03 | 87 | 1014.4 |
| 20260510060055 | 64 | 88 | 0.0 | 3.0 | 0.03 | 0.05 | 0.03 | 88 | 1014.6 |
| 20260510054553 | 64 | 113 | 0.0 | 1.0 | 0.04 | 0.05 | 0.03 | 88 | 1014.2 |
| 20260510053050 | 64 | 126 | 0.0 | 3.0 | 0.04 | 0.05 | 0.03 | 87 | 1011.8 |
| 20260510051550 | 65 | 143 | 1.0 | 8.0 | 0.03 | 0.04 | 0.02 | 85 | 1010.1 |
| 20260510050049 | 67 | 355 | 0.0 | 3.0 | 0.01 | 0.02 | 0.02 | 81 | 1013.6 |
| 20260510044549 | 69 | 19 | 1.0 | 6.0 | 0.00 | 0.01 | 0.01 | 78 | 1014.0 |
| 20260510043040 | 71 | 9 | 0.0 | 4.0 | 0.00 | 0.01 | 0.01 | 73 | 1012.9 |
| 20260510041542 | 72 | 299 | 1.0 | 9.0 | 0.00 | 0.01 | 0.01 | 69 | 1012.4 |
| 20260510040037 | 71 | 168 | 0.0 | 8.0 | 0.00 | 0.01 | 0.01 | 68 | 1009.2 |
| 20260510034537 | 71 | 165 | 4.0 | 12.0 | 0.00 | 0.01 | 0.01 | 70 | 1007.3 |
| 20260510033039 | 73 | 360 | 6.0 | 13.0 | 0.00 | 0.01 | 0.01 | 69 | 1007.0 |
| 20260510031537 | 72 | 360 | 6.0 | 14.0 | 0.00 | 0.01 | 0.01 | 72 | 1007.3 |
| 20260510030034 | 73 | 360 | 4.0 | 11.0 | 0.00 | 0.01 | 0.01 | 71 | 1007.9 |
| 20260510024534 | 76 | 360 | 4.0 | 8.0 | 0.00 | 0.01 | 0.01 | 64 | 1010.1 |
| 20260510023033 | 75 | 360 | 5.0 | 9.0 | 0.00 | 0.01 | 0.01 | 63 | 1009.2 |
| 20260510021537 | 76 | 360 | 5.0 | 12.0 | 0.00 | 0.01 | 0.01 | 62 | 1007.3 |
| 20260510020033 | 77 | 360 | 3.0 | 6.0 | 0.00 | 0.01 | 0.01 | 58 | 1008.3 |
| 20260510014533 | 77 | 360 | 0.0 | 0.0 | 0.00 | 0.01 | 0.01 | 56 | 1008.4 |
| 20260510013030 | 78 | 360 | 1.0 | 3.0 | 0.00 | 0.01 | 0.01 | 54 | 1007.7 |
| 20260510011531 | 78 | 360 | 1.0 | 4.0 | 0.00 | 0.01 | 0.01 | 53 | 1007.0 |
| 20260510010029 | 79 | 360 | 1.0 | 3.0 | 0.00 | 0.02 | 0.01 | 50 | 1007.1 |
| 20260510004529 | 79 | 360 | 1.0 | 3.0 | 0.00 | 0.02 | 0.01 | 50 | 1007.0 |
| 20260510003029 | 80 | 360 | 0.0 | 4.0 | 0.00 | 0.02 | 0.01 | 49 | 1007.0 |
| 20260510001528 | 81 | 360 | 2.0 | 6.0 | 0.00 | 0.02 | 0.01 | 46 | 1006.9 |
| 20260510000026 | 81 | 360 | 1.0 | 8.0 | 0.00 | 0.42 | 0.01 | 44 | 1007.1 |
| 20260509234533 | 82 | 150 | 1.0 | 5.0 | 0.00 | 0.42 | 0.01 | 44 | 1007.0 |
| 20260509233024 | 83 | 169 | 3.0 | 9.0 | 0.00 | 0.42 | 0.01 | 43 | 1007.3 |
| 20260509231521 | 83 | 160 | 3.0 | 8.0 | 0.00 | 0.42 | 0.01 | 43 | 1007.6 |
| 20260509230019 | 83 | 136 | 2.0 | 6.0 | 0.00 | 0.42 | 0.01 | 44 | 1007.9 |
| 20260509224518 | 84 | 150 | 0.0 | 8.0 | 0.00 | 0.42 | 0.01 | 43 | 1008.1 |
| 20260509223021 | 84 | 159 | 2.0 | 5.0 | 0.00 | 0.42 | 0.01 | 44 | 1008.2 |
| 20260509221520 | 84 | 140 | 3.0 | 8.0 | 0.00 | 0.42 | 0.01 | 42 | 1008.3 |
| 20260509220017 | 84 | 108 | 2.0 | 6.0 | 0.00 | 0.42 | 0.01 | 39 | 1008.2 |
| 20260509214516 | 84 | 132 | 0.0 | 5.0 | 0.00 | 0.42 | 0.01 | 42 | 1008.4 |
| 20260509213013 | 84 | 132 | 1.0 | 7.0 | 0.00 | 0.42 | 0.01 | 42 | 1008.4 |
| 20260509211513 | 84 | 135 | 1.0 | 9.0 | 0.00 | 0.42 | 0.01 | 47 | 1008.4 |
| 20260509210012 | 83 | 103 | 1.0 | 4.0 | 0.00 | 0.42 | 0.01 | 45 | 1008.5 |
| 20260509204509 | 83 | 96 | 1.0 | 4.0 | 0.00 | 0.42 | 0.01 | 44 | 1008.7 |
| 20260509203005 | 83 | 140 | 1.0 | 7.0 | 0.00 | 0.42 | 0.01 | 47 | 1009.1 |
| 20260509201501 | 83 | 105 | 1.0 | 4.0 | 0.00 | 0.42 | 0.01 | 47 | 1009.1 |
| 20260509200105 | 83 | 148 | 2.0 | 7.0 | 0.00 | 0.42 | 0.01 | 47 | 1009.2 |
| 20260509194600 | 83 | 148 | 1.0 | 4.0 | 0.00 | 0.42 | 0.01 | 48 | 1009.4 |
| 20260509193054 | 83 | 157 | 1.0 | 8.0 | 0.00 | 0.42 | 0.01 | 46 | 1009.6 |
| 20260509191601 | 82 | 81 | 1.0 | 3.0 | 0.00 | 0.42 | 0.01 | 46 | 1009.4 |
| 20260509190106 | 83 | 163 | 1.0 | 6.0 | 0.00 | 0.42 | 0.01 | 48 | 1009.8 |
| 20260509184552 | 82 | 146 | 1.0 | 4.0 | 0.00 | 0.42 | 0.01 | 49 | 1009.8 |
| 20260509183049 | 82 | 123 | 1.0 | 4.0 | 0.00 | 0.42 | 0.01 | 49 | 1010.1 |
| 20260509181548 | 82 | 144 | 2.0 | 4.0 | 0.00 | 0.42 | 0.01 | 51 | 1010.4 |
| 20260509180052 | 81 | 142 | 1.0 | 4.0 | 0.00 | 0.42 | 0.01 | 52 | 1010.6 |
| 20260509174546 | 81 | 153 | 1.0 | 6.0 | 0.00 | 0.42 | 0.01 | 56 | 1011.0 |
| 20260509173047 | 80 | 159 | 0.0 | 2.0 | 0.00 | 0.42 | 0.01 | 56 | 1011.2 |
| 20260509171546 | 80 | 158 | 0.0 | 5.0 | 0.00 | 0.42 | 0.01 | 60 | 1011.5 |
| 20260509170040 | 79 | 161 | 1.0 | 3.0 | 0.01 | 0.42 | 0.01 | 62 | 1011.4 |
| 20260509164547 | 78 | 154 | 0.0 | 7.0 | 0.01 | 0.42 | 0.01 | 66 | 1011.5 |
| 20260509163037 | 79 | 163 | 2.0 | 5.0 | 0.01 | 0.42 | 0.01 | 71 | 1011.5 |
| 20260509161535 | 78 | 162 | 0.0 | 3.0 | 0.01 | 0.42 | 0.01 | 74 | 1011.5 |
| 20260509160030 | 77 | 155 | 1.0 | 5.0 | 0.00 | 0.41 | 0.00 | 75 | 1011.7 |
| 20260509154525 | 77 | 167 | 0.0 | 5.0 | 0.00 | 0.41 | 0.00 | 76 | 1011.6 |
| 20260509153020 | 76 | 159 | 2.0 | 5.0 | 0.00 | 0.41 | 0.00 | 74 | 1011.7 |
| 20260509151518 | 74 | 154 | 2.0 | 5.0 | 0.00 | 0.41 | 0.00 | 75 | 1011.6 |
| 20260509150029 | 74 | 148 | 0.0 | 5.0 | 0.00 | 0.41 | 0.00 | 77 | 1011.5 |
| 20260509144511 | 73 | 157 | 1.0 | 3.0 | 0.00 | 0.41 | 0.00 | 79 | 1011.4 |
| 20260509143009 | 71 | 126 | 0.0 | 4.0 | 0.00 | 0.41 | 0.00 | 81 | 1011.4 |
| 20260509141508 | 70 | 119 | 0.0 | 2.0 | 0.00 | 0.41 | 0.00 | 86 | 1011.5 |
| 20260509140104 | 68 | 118 | 0.0 | 1.0 | 0.00 | 0.41 | 0.00 | 90 | 1011.5 |
| 20260509134626 | 66 | 118 | 0.0 | 2.0 | 0.00 | 0.41 | 0.00 | 93 | 1011.4 |
| 20260509133055 | 65 | 118 | 0.0 | 0.0 | 0.00 | 0.41 | 0.00 | 95 | 1011.3 |
| 20260509131551 | 62 | 116 | 0.0 | 0.0 | 0.00 | 0.41 | 0.00 | 95 | 1011.1 |
| 20260509130043 | 61 | 360 | 0.0 | 0.0 | 0.00 | 0.41 | 0.00 | 95 | 1010.8 |
| 20260509124538 | 59 | 360 | 0.0 | 0.0 | 0.00 | 0.41 | 0.00 | 95 | 1010.7 |
| 20260509123036 | 57 | 113 | 0.0 | 0.0 | 0.00 | 0.41 | 0.00 | 95 | 1010.5 |
| 20260509121532 | 57 | 113 | 0.0 | 0.0 | 0.00 | 0.41 | 0.00 | 95 | 1010.5 |
| 20260509120035 | 56 | 113 | 0.0 | 0.0 | 0.00 | 0.41 | 0.00 | 94 | 1010.3 |
| 20260509114531 | 56 | 111 | 0.0 | 0.0 | 0.00 | 0.41 | 0.00 | 94 | 1010.2 |
| 20260509113025 | 57 | 111 | 0.0 | 0.0 | 0.00 | 0.41 | 0.00 | 94 | 1009.9 |
| 20260509111525 | 57 | 111 | 0.0 | 0.0 | 0.00 | 0.41 | 0.00 | 94 | 1009.8 |
| 20260509110024 | 57 | 111 | 0.0 | 0.0 | 0.00 | 0.41 | 0.00 | 94 | 1009.8 |
| 20260509104523 | 57 | 111 | 0.0 | 0.0 | 0.00 | 0.41 | 0.00 | 94 | 1009.6 |
| 20260509103019 | 58 | 111 | 0.0 | 0.0 | 0.00 | 0.41 | 0.00 | 94 | 1009.8 |
| 20260509101531 | 58 | 111 | 0.0 | 0.0 | 0.00 | 0.41 | 0.00 | 94 | 1010.1 |
| 20260509100023 | 58 | 111 | 0.0 | 0.0 | 0.00 | 0.41 | 0.00 | 94 | 1010.2 |
| 20260509094520 | 58 | 111 | 0.0 | 0.0 | 0.00 | 0.41 | 0.00 | 94 | 1010.2 |
| 20260509093018 | 59 | 111 | 0.0 | 0.0 | 0.00 | 0.41 | 0.00 | 94 | 1010.2 |
| 20260509091519 | 59 | 111 | 0.0 | 0.0 | 0.00 | 0.41 | 0.00 | 94 | 1010.1 |
| 20260509090015 | 59 | 111 | 0.0 | 0.0 | 0.00 | 0.41 | 0.00 | 94 | 1010.2 |
| 20260509084516 | 59 | 111 | 0.0 | 0.0 | 0.00 | 0.41 | 0.00 | 94 | 1009.9 |
| 20260509083015 | 59 | 111 | 0.0 | 0.0 | 0.00 | 0.41 | 0.00 | 94 | 1010.1 |
| 20260509081509 | 59 | 111 | 0.0 | 0.0 | 0.00 | 0.41 | 0.00 | 94 | 1010.4 |